Weather History for Omak, WA

Change the Weather History Date:

Monday, March 24, 2014

  Actual Average Record
Temperature  
Mean Temperature 45 °F 45 °F  
Max Temperature 55 °F 56 °F 71 °F (1940)
Min Temperature 34 °F 33 °F 11 °F (1965)
Degree Days  
Heating Degree Days 20 20  
Month to date heating degree days 600 595  
Since 1 July heating degree days 5590 5456  
Cooling Degree Days 0 0  
Month to date cooling degree days 0 0  
Year to date cooling degree days 0 0  
Moisture  
Dew Point 22 °F    
Average Humidity 43    
Maximum Humidity 59    
Minimum Humidity 26    
Precipitation  
Precipitation 0.00 in 0.04 in 0.46 in (1972)
Month to date precipitation 0.56 0.89  
Year to date precipitation 2.38 3.88  
Sea Level Pressure  
Sea Level Pressure 30.22 in    
Wind  
Wind Speed 6 mph (NW)    
Max Wind Speed 14 mph    
Max Gust Speed 18 mph    
Visibility 10 miles    
Events      
T = Trace of Precipitation, MM = Missing Value Source: NWS Daily Summary

Daily Weather History Graph

Daily Weather History Graph

Search for Another Location

Airport:

Trip Planner

Search our weather history database for the weather conditions in past years. The results will help you decide how hot, cold, wet, or windy it might be!

Date:

Astronomy

Mar. 24, 2014 Rise Set
Actual Time 6:52 AM PDT 7:17 PM PDT
Civil Twilight 6:21 AM PDT 7:48 PM PDT
Nautical Twilight 5:43 AM PDT 8:25 PM PDT
Astronomical Twilight 5:05 AM PDT 9:04 PM PDT
Moon 2:53 AM PDT 12:21 PM PDT
Length of Visible Light 13h 27m
Length of Day
12h 24m
Last Quarter, 42% of the Moon is Illuminated
Mar 24
Last Quarter
Mar 30
New
Apr 7
First Quarter
Apr 15
Full
Apr 22
Last Quarter

Hourly Weather History & Observations

Time (PDT) Temp. Windchill Dew Point Humidity Pressure Visibility Wind Dir Wind Speed Gust Speed Precip Events Conditions
12:53 AM 36.0 °F 28.0 °F 21.0 °F 55% 30.30 in 10.0 mi NNW 11.5 mph - N/A   Clear
1:53 AM 37.0 °F 28.5 °F 21.0 °F 52% 30.30 in 10.0 mi North 13.8 mph - N/A   Clear
2:53 AM 36.0 °F 29.0 °F 21.0 °F 55% 30.31 in 10.0 mi North 9.2 mph - N/A   Overcast
3:53 AM 36.0 °F 29.0 °F 21.0 °F 55% 30.31 in 10.0 mi NNW 9.2 mph - N/A   Overcast
4:53 AM 36.0 °F 29.0 °F 21.0 °F 55% 30.31 in 10.0 mi NNW 9.2 mph - N/A   Overcast
5:53 AM 36.0 °F 30.3 °F 21.0 °F 55% 30.32 in 10.0 mi North 6.9 mph - N/A   Overcast
6:53 AM 36.0 °F 29.6 °F 21.0 °F 55% 30.32 in 10.0 mi North 8.1 mph - N/A   Overcast
7:53 AM 36.0 °F 29.6 °F 21.9 °F 57% 30.33 in 10.0 mi North 8.1 mph - N/A   Overcast
8:53 AM 39.0 °F 32.3 °F 23.0 °F 53% 30.32 in 10.0 mi North 10.4 mph - N/A   Partly Cloudy
9:53 AM 43.0 °F 37.2 °F 21.9 °F 43% 30.32 in 10.0 mi North 10.4 mph - N/A   Partly Cloudy
10:53 AM 46.9 °F - 23.0 °F 39% 30.31 in 10.0 mi North 8.1 mph - N/A   Mostly Cloudy
11:53 AM 48.0 °F - 21.0 °F 34% 30.29 in 10.0 mi Variable 4.6 mph - N/A   Mostly Cloudy
12:53 PM 50.0 °F - 21.0 °F 32% 30.27 in 10.0 mi Variable 3.5 mph - N/A   Scattered Clouds
1:53 PM 52.0 °F - 21.0 °F 30% 30.24 in 10.0 mi SSW 4.6 mph - N/A   Clear
2:53 PM 53.1 °F - 21.9 °F 30% 30.22 in 10.0 mi Variable 5.8 mph - N/A   Clear
3:53 PM 54.0 °F - 23.0 °F 30% 30.18 in 10.0 mi SW 6.9 mph - N/A   Clear
4:53 PM 54.0 °F - 21.9 °F 29% 30.16 in 10.0 mi WSW 4.6 mph - N/A   Clear
5:53 PM 55.0 °F - 21.9 °F 28% 30.13 in 10.0 mi Calm Calm - N/A   Clear
6:53 PM 50.0 °F - 24.1 °F 36% 30.11 in 10.0 mi Calm Calm - N/A   Clear
7:53 PM 43.0 °F 41.3 °F 24.1 °F 47% 30.10 in 10.0 mi WNW 3.5 mph - N/A   Clear
8:53 PM 41.0 °F 36.4 °F 26.1 °F 55% 30.08 in 10.0 mi WNW 6.9 mph - N/A   Clear
9:53 PM 41.0 °F 35.8 °F 25.0 °F 53% 30.06 in 10.0 mi WNW 8.1 mph - N/A   Clear
10:53 PM 37.0 °F 32.4 °F 24.1 °F 59% 30.06 in 10.0 mi WNW 5.8 mph - N/A   Clear
11:53 PM 37.0 °F - 25.0 °F 62% 30.03 in 10.0 mi Calm Calm - N/A   Clear